TimeCDT,TemperatureF,Dew PointF,Humidity,Sea Level PressureIn,VisibilityMPH,Wind Direction,Wind SpeedMPH,Gust SpeedMPH,PrecipitationIn,Events,Conditions,WindDirDegrees,DateUTC
12:54 AM,54.0,51.1,90,30.09,10.0,Calm,Calm,-,N/A,,Clear,0,2013-08-05 05:54:00
1:54 AM,55.9,51.1,84,30.07,10.0,SSE,3.5,-,N/A,,Clear,150,2013-08-05 06:54:00
2:54 AM,55.9,52.0,87,30.07,10.0,Calm,Calm,-,N/A,,Clear,0,2013-08-05 07:54:00
3:54 AM,55.9,54.0,93,30.06,10.0,South,4.6,-,N/A,,Scattered Clouds,180,2013-08-05 08:54:00
4:54 AM,57.9,55.0,90,30.05,10.0,SSE,3.5,-,N/A,,Overcast,150,2013-08-05 09:54:00
5:54 AM,57.9,55.0,90,30.04,10.0,SSE,3.5,-,N/A,,Overcast,150,2013-08-05 10:54:00
6:54 AM,59.0,57.0,93,30.04,6.0,South,6.9,-,0.01,Rain,Light Rain,180,2013-08-05 11:54:00
7:54 AM,59.0,57.0,93,30.01,10.0,South,8.1,-,0.00,,Clear,170,2013-08-05 12:54:00
8:34 AM,60.8,57.2,88,29.99,10.0,South,5.8,-,N/A,,Scattered Clouds,170,2013-08-05 13:34:00
8:54 AM,61.0,57.9,90,29.99,10.0,South,5.8,-,N/A,,Mostly Cloudy,170,2013-08-05 13:54:00
9:54 AM,64.9,57.9,78,29.99,10.0,Variable,4.6,-,N/A,,Overcast,0,2013-08-05 14:54:00
10:54 AM,71.1,59.0,66,29.98,10.0,SSW,6.9,-,N/A,,Mostly Cloudy,210,2013-08-05 15:54:00
11:45 AM,69.8,57.2,64,29.97,10.0,SSW,10.4,-,0.01,,Overcast,200,2013-08-05 16:45:00
11:54 AM,70.0,57.9,65,29.97,10.0,SSW,11.5,-,0.01,,Overcast,200,2013-08-05 16:54:00
12:54 PM,71.1,60.1,68,29.96,10.0,SSW,6.9,-,N/A,,Overcast,210,2013-08-05 17:54:00
1:54 PM,73.0,59.0,61,29.93,10.0,SSW,10.4,-,N/A,,Overcast,200,2013-08-05 18:54:00
2:54 PM,71.1,59.0,66,29.91,10.0,SW,9.2,-,N/A,,Overcast,220,2013-08-05 19:54:00
3:39 PM,71.6,59.0,64,29.90,10.0,South,10.4,-,N/A,,Overcast,190,2013-08-05 20:39:00
3:54 PM,72.0,60.1,66,29.89,10.0,SSW,9.2,-,N/A,,Overcast,200,2013-08-05 20:54:00
4:54 PM,71.1,61.0,70,29.88,10.0,SSW,6.9,-,N/A,,Overcast,210,2013-08-05 21:54:00
5:54 PM,70.0,61.0,73,29.88,10.0,SSW,8.1,-,N/A,,Overcast,200,2013-08-05 22:54:00
6:54 PM,70.0,61.0,73,29.87,10.0,SSW,6.9,-,N/A,,Overcast,200,2013-08-05 23:54:00
7:54 PM,68.0,61.0,78,29.87,10.0,South,8.1,-,N/A,,Overcast,190,2013-08-06 00:54:00
8:54 PM,66.0,62.1,87,29.86,10.0,South,8.1,-,N/A,,Overcast,190,2013-08-06 01:54:00
9:39 PM,66.2,62.6,88,29.88,10.0,SSW,5.8,-,N/A,,Overcast,200,2013-08-06 02:39:00
9:54 PM,66.0,62.1,87,29.88,10.0,SSW,5.8,-,N/A,,Overcast,200,2013-08-06 02:54:00
10:54 PM,66.0,63.0,90,29.87,10.0,SSW,4.6,-,N/A,,Overcast,210,2013-08-06 03:54:00
11:54 PM,66.0,63.0,90,29.87,10.0,Calm,Calm,-,N/A,,Overcast,0,2013-08-06 04:54:00